This is the latest recevied weather packets stored in our database for station/object SP2FH-13. If no packets are shown the sender has not sent any weather packets the latest 10 day(s).
| Time | Temp. | Humidity | Pressure | Rain* | Wind** | Luminosity | Snow |
|---|---|---|---|---|---|---|---|
| 1777596081 | 5° C | 76% | 1015.6 hPa | - | - | - | - |
| 1777595781 | 5.56° C | 76% | 1015.5 hPa | - | - | - | - |
| 1777595480 | 5.56° C | 75% | 1015.5 hPa | - | - | - | - |
| 1777595179 | 5.56° C | 76% | 1015.6 hPa | - | - | - | - |
| 1777594877 | 5° C | 78% | 1015.6 hPa | - | - | - | - |
| 1777594576 | 5.56° C | 78% | 1015.7 hPa | - | - | - | - |
| 1777594276 | 5.56° C | 76% | 1015.7 hPa | - | - | - | - |
| 1777593975 | 4.44° C | 76% | 1015.7 hPa | - | - | - | - |
| 1777593674 | 3.89° C | 83% | 1015.7 hPa | - | - | - | - |
| 1777593373 | 3.89° C | 84% | 1015.7 hPa | - | - | - | - |
| 1777593072 | 4.44° C | 80% | 1015.7 hPa | - | - | - | - |
| 1777592771 | 4.44° C | 81% | 1015.7 hPa | - | - | - | - |
| 1777592470 | 4.44° C | 80% | 1015.7 hPa | - | - | - | - |
| 1777592169 | 4.44° C | 79% | 1015.6 hPa | - | - | - | - |
| 1777591868 | 5° C | 78% | 1015.6 hPa | - | - | - | - |
| 1777591567 | 5.56° C | 77% | 1015.7 hPa | - | - | - | - |
| 1777591266 | 6.11° C | 75% | 1015.7 hPa | - | - | - | - |
| 1777590964 | 5.56° C | 74% | 1015.7 hPa | - | - | - | - |
| 1777590664 | 5.56° C | 75% | 1015.7 hPa | - | - | - | - |
| 1777590363 | 5.56° C | 75% | 1015.8 hPa | - | - | - | - |
| 1777590062 | 5.56° C | 75% | 1015.8 hPa | - | - | - | - |
| 1777589761 | 5.56° C | 75% | 1015.8 hPa | - | - | - | - |
| 1777589460 | 6.11° C | 75% | 1015.7 hPa | - | - | - | - |
| 1777589159 | 5.56° C | 74% | 1015.7 hPa | - | - | - | - |
| 1777588858 | 6.11° C | 74% | 1015.7 hPa | - | - | - | - |
* Rain since midnight (hover to see other rain measurements)
** Current wind speed in m/s (hover to see current wind gust speed)